Home   Weather   Copenhagen   Past weeks

Flag for Denmark Past Weather in Copenhagen, Denmark — Yesterday and Last 2 Weeks

Now
36 °F

Fog.


Feels Like: 32 °F
Forecast: 32 / 37 °F
Wind: 5 mph from Southwest

Location: Koebenhavn-Kastrup Airport

Current Time: Jan 21, 2017 at 10:51:26 pm

Latest Report: Jan 21, 2017 at 10:20 pm


Visibility: 0 mi

Pressure: 30.45 "Hg

Humidity: 100%

Dew Point: 36 °F

Location of CopenhagenLocation

Past Weather in Copenhagen — Graph

°F

Copenhagen Temperature Yesterday

Maximum temperature yesterday: 46 °F (at 12:20 pm)
Minimum temperature yesterday: 36 °F (at 11:20 pm)
Average temperature yesterday: 41 °F

High & Low Weather Summary for the Past Weeks

 TemperatureHumidityPressure
High46 °F (Jan 20, 12:20 pm)100% (Jan 7, 10:20 am)30.63 "Hg (Jan 7, 10:20 am)
Low23 °F (Jan 16, 4:20 am)59% (Jan 7, 2:20 am)29.09 "Hg (Jan 11, 5:20 pm)
Average34 °F90%30.06 "Hg
* Reported Jan 6 9:20 pm — Jan 21 9:20 pm, Copenhagen, Weather by CustomWeather, © 2017

Note: Actual official high and low records may vary slightly from our data, if they occured in-between our weather recording intervals... More about our weather records

Advertising

Copenhagen Weather History for the Previous 24 Hours

Scroll right to see more
 ConditionsComfort  
Time TempWeatherWind HumidityBarometerVisibility
9:20 pm
Sat, Jan 21
36 °FFog.5 mph100%30.45 "Hg1 mi
8:50 pm36 °FFog.6 mph100%30.45 "Hg1 mi
8:20 pm36 °FFog.5 mph100%30.45 "Hg1 mi
7:50 pm36 °FFog.2 mph100%30.45 "Hg1 mi
7:20 pm36 °FFog.1 mph100%30.45 "Hg1 mi
6:50 pm36 °FFog.2 mph100%30.45 "Hg1 mi
6:20 pm36 °FFog.3 mph100%30.45 "Hg0 mi
5:50 pm36 °FFog.2 mph100%30.45 "Hg0 mi
5:20 pm36 °FFog.2 mph100%30.45 "Hg0 mi
4:50 pm37 °FFog.2 mph100%30.42 "Hg0 mi
4:20 pm37 °FFog.2 mph100%30.42 "Hg0 mi
3:50 pm37 °FFog.1 mph100%30.42 "Hg0 mi
3:20 pm37 °FFog.1 mph100%30.42 "Hg0 mi
2:50 pm37 °FFog.3 mph100%30.42 "Hg1 mi
2:20 pm37 °FFog.3 mph100%30.42 "Hg0 mi
1:50 pm37 °FFog.2 mph100%30.42 "Hg0 mi
1:20 pm37 °FFog.2 mph100%30.45 "Hg1 mi
12:50 pm37 °FFog.3 mph100%30.45 "Hg1 mi
12:20 pm37 °FFog.3 mph100%30.45 "Hg1 mi
11:50 am37 °FFog.2 mph100%30.45 "Hg0 mi
11:20 am37 °FFog.3 mph100%30.45 "Hg0 mi
10:50 am37 °FFog.3 mph100%30.45 "Hg0 mi
10:20 am37 °FFog.2 mph100%30.45 "Hg0 mi
9:50 am37 °FFog.5 mph100%30.45 "Hg0 mi
9:20 am37 °FFog.5 mph93%30.42 "Hg0 mi
8:50 am37 °FFog.5 mph100%30.42 "Hg0 mi
8:20 am37 °FFog.7 mph100%30.42 "Hg0 mi
7:50 am37 °FFog.7 mph100%30.42 "Hg0 mi
7:20 am37 °FFog.6 mph100%30.42 "Hg0 mi
6:50 am37 °FFog.7 mph100%30.42 "Hg0 mi
6:20 am37 °FFog.7 mph100%30.39 "Hg1 mi
5:50 am39 °FFog.8 mph100%30.39 "Hg1 mi
5:20 am39 °FFog.7 mph100%30.39 "Hg1 mi
4:50 am39 °FFog.6 mph100%30.39 "Hg1 mi
4:20 am37 °FFog.6 mph100%30.42 "Hg1 mi
3:50 am36 °FFog.8 mph100%30.42 "Hg2 mi
3:20 am34 °FPassing clouds.5 mph100%30.42 "Hg5 mi
2:50 am36 °FPassing clouds.5 mph93%30.42 "HgN/A
2:20 am37 °FPassing clouds.6 mph93%30.42 "HgN/A
1:50 am34 °FPassing clouds.6 mph100%30.42 "HgN/A
1:20 am34 °FPassing clouds.6 mph100%30.42 "HgN/A
12:50 am34 °FPassing clouds.6 mph100%30.42 "HgN/A
12:20 am32 °FPassing clouds.7 mph100%30.42 "HgN/A
11:50 pm
Fri, Jan 20
36 °FClear.6 mph93%30.42 "Hg10 mi
11:20 pm36 °FClear.8 mph93%30.42 "Hg10 mi
10:50 pm37 °FClear.10 mph100%30.42 "Hg10 mi
10:20 pm37 °FClear.10 mph93%30.42 "Hg10 mi
Weather by CustomWeather, © 2017

See weather overviewHow to use our weather pages